UAL8271 KPBI-KMCO

Flight info

Callsign UAL8271
Flight time N/A
Altitude 16000
Route TBIRD7 CHEFS MUNGI1
Aircraft B720/M-SDFGHRWY/C

Departure

Time 2026-04-29 15:18
Airport Palm Beach International Airport (KPBI)

Arrival

Time N/A
Airport Orlando International Airport (KMCO)
Time Latitude Longitude Altitude Speed Heading
2026-04-29 14:57 26.68689 -80.09392 19 ft 0 kts 110°
2026-04-29 15:11 26.68691 -80.09398 19 ft 2 kts 110°
2026-04-29 15:11 26.68696 -80.09414 19 ft 2 kts 110°
2026-04-29 15:11 26.68702 -80.09430 19 ft 2 kts 115°
2026-04-29 15:12 26.68711 -80.09442 19 ft 2 kts 147°
2026-04-29 15:12 26.68720 -80.09447 19 ft 2 kts 165°
2026-04-29 15:12 26.68740 -80.09447 19 ft 2 kts 200°
2026-04-29 15:12 26.68752 -80.09439 19 ft 0 kts 224°
2026-04-29 15:13 26.68756 -80.09434 19 ft 1 kts 228°
2026-04-29 15:13 26.68756 -80.09433 19 ft 0 kts 228°
2026-04-29 15:14 26.68748 -80.09442 19 ft 4 kts 227°
2026-04-29 15:14 26.68716 -80.09481 19 ft 9 kts 229°
2026-04-29 15:15 26.68702 -80.09531 19 ft 6 kts 280°
2026-04-29 15:15 26.68690 -80.09596 19 ft 10 kts 229°
2026-04-29 15:15 26.68653 -80.09684 19 ft 14 kts 266°
2026-04-29 15:15 26.68644 -80.09817 19 ft 19 kts 265°
2026-04-29 15:16 26.68627 -80.09942 19 ft 16 kts 259°
2026-04-29 15:16 26.68610 -80.10073 19 ft 17 kts 261°
2026-04-29 15:16 26.68591 -80.10220 19 ft 21 kts 262°
2026-04-29 15:16 26.68564 -80.10377 19 ft 18 kts 258°
2026-04-29 15:17 26.68556 -80.10534 22 ft 19 kts 273°
2026-04-29 15:17 26.68563 -80.10702 22 ft 23 kts 272°
2026-04-29 15:17 26.68491 -80.10819 22 ft 22 kts 180°
2026-04-29 15:17 26.68363 -80.10822 22 ft 17 kts 173°
2026-04-29 15:18 26.68316 -80.10719 22 ft 19 kts 94°
2026-04-29 15:18 26.68298 -80.10313 19 ft 91 kts 92°
2026-04-29 15:18 26.68260 -80.09343 102 ft 146 kts 92°
2026-04-29 15:18 26.68266 -80.08243 722 ft 147 kts 91°
2026-04-29 15:19 26.68340 -80.07024 894 ft 171 kts 81°
2026-04-29 15:19 26.68773 -80.05770 1556 ft 176 kts 62°
2026-04-29 15:19 26.69360 -80.04549 2223 ft 181 kts 62°
2026-04-29 15:19 26.69778 -80.03261 3008 ft 180 kts 74°
2026-04-29 15:20 26.70151 -80.01874 3521 ft 206 kts 74°
2026-04-29 15:20 26.70604 -80.00142 3648 ft 248 kts 73°
2026-04-29 15:20 26.71527 -79.98388 3886 ft 274 kts 41°
2026-04-29 15:20 26.73258 -79.97477 4175 ft 275 kts
2026-04-29 15:21 26.75184 -79.97485 4479 ft 273 kts 360°
2026-04-29 15:21 26.77073 -79.97698 4763 ft 274 kts 339°
2026-04-29 15:21 26.78596 -79.98975 5044 ft 276 kts 304°
2026-04-29 15:21 26.79375 -80.00952 5344 ft 276 kts 291°
2026-04-29 15:22 26.80066 -80.02979 5650 ft 278 kts 291°
2026-04-29 15:22 26.80738 -80.04999 5967 ft 280 kts 291°
2026-04-29 15:22 26.81420 -80.07074 6315 ft 281 kts 291°
2026-04-29 15:22 26.82086 -80.09130 6649 ft 280 kts 291°
2026-04-29 15:23 26.82739 -80.11164 6963 ft 280 kts 291°
2026-04-29 15:23 26.83402 -80.13243 7296 ft 281 kts 290°
2026-04-29 15:23 26.84058 -80.15314 7614 ft 282 kts 291°
2026-04-29 15:23 26.84712 -80.17392 8040 ft 283 kts 291°
2026-04-29 15:24 26.85371 -80.19490 8512 ft 283 kts 291°
2026-04-29 15:24 26.86022 -80.21572 8974 ft 285 kts 291°
2026-04-29 15:24 26.86682 -80.23685 9454 ft 286 kts 291°
2026-04-29 15:24 26.87335 -80.25782 9921 ft 287 kts 292°
2026-04-29 15:25 26.87989 -80.27889 10399 ft 287 kts 291°
2026-04-29 15:25 26.88659 -80.30047 10886 ft 288 kts 292°
2026-04-29 15:25 26.89314 -80.32164 11367 ft 288 kts 292°
2026-04-29 15:25 26.89932 -80.34162 11835 ft 288 kts 292°
2026-04-29 15:26 26.90667 -80.36247 12304 ft 287 kts 305°
2026-04-29 15:26 26.92021 -80.37822 12762 ft 283 kts 329°
2026-04-29 15:26 26.93834 -80.38746 13263 ft 283 kts 337°
2026-04-29 15:26 26.95664 -80.39606 13768 ft 283 kts 338°
2026-04-29 15:27 26.97358 -80.40389 14230 ft 288 kts 338°
2026-04-29 15:27 26.99253 -80.41254 14754 ft 292 kts 338°
2026-04-29 15:27 27.01136 -80.42105 15274 ft 294 kts 338°
2026-04-29 15:27 27.03059 -80.42967 15800 ft 301 kts 338°
2026-04-29 15:28 27.05079 -80.43868 16129 ft 323 kts 338°
2026-04-29 15:28 27.06525 -80.44509 15962 ft 340 kts 339°
2026-04-29 15:28 27.09467 -80.45810 15959 ft 340 kts 339°
2026-04-29 15:28 27.11665 -80.46778 15961 ft 337 kts 339°
2026-04-29 15:29 27.13850 -80.47762 15951 ft 335 kts 334°
2026-04-29 15:29 27.17258 -80.51350 15967 ft 339 kts 312°
2026-04-29 15:30 27.20322 -80.55409 15961 ft 338 kts 311°
2026-04-29 15:30 27.21844 -80.57446 15951 ft 337 kts 311°
2026-04-29 15:30 27.23354 -80.59474 15950 ft 337 kts 311°
2026-04-29 15:30 27.24858 -80.61504 15954 ft 337 kts 311°
2026-04-29 15:31 27.26360 -80.63535 15964 ft 338 kts 311°
2026-04-29 15:31 27.26917 -80.64291 15967 ft 338 kts 311°
2026-04-29 15:31 27.28437 -80.66354 15958 ft 339 kts 311°
2026-04-29 15:31 27.29956 -80.68419 15960 ft 339 kts 311°
2026-04-29 15:32 27.31468 -80.70476 15955 ft 338 kts 310°
2026-04-29 15:32 27.32962 -80.72512 15963 ft 336 kts 310°
2026-04-29 15:32 27.34461 -80.74557 15959 ft 337 kts 310°
2026-04-29 15:32 27.35996 -80.76532 15956 ft 338 kts 319°
2026-04-29 15:33 27.38020 -80.77893 15987 ft 336 kts 337°
2026-04-29 15:33 27.40161 -80.78944 15960 ft 338 kts 336°
2026-04-29 15:33 27.42357 -80.80012 15953 ft 337 kts 336°
2026-04-29 15:33 27.44568 -80.81078 15959 ft 336 kts 336°
2026-04-29 15:34 27.45630 -80.81587 15958 ft 335 kts 336°